Location: ?
(35.3436°N, 139.3168°E)
Time: 07:45:58
(UTC+00:00)

ATLAS CENTAUR R/B - Pass Details

Date: 29 October 2020
Orbit: 479 x 667 km, 64.7° (Epoch: 26 November)

Event Time Altitude Azimuth Distance (km) Brightness Sun altitude
Exits shadow 19:03:40 - 181° (S) 2,668 4.8 -24.7°
Reaches altitude 10° 19:06:06 10° 168° (SSE) 1,787 4.0 -24.2°
Maximum altitude 19:09:20 24° 113° (ESE) 1,108 3.5 -23.5°
Drops below altitude 10° 19:12:27 10° 58° (ENE) 1,719 4.6 -22.9°
Sets 19:14:51 0° 45° (NE) 2,582 5.4 -22.4°
